| time (UTC) | temp F | wind direction | speed MPH | gust MPH | rain 1hr in | rain 24hr in | rain mn in | humidity % | barometer mb |
| 20260510174610 | 75 | 163 | 3.0 | 10.0 | 0.00 | 0.11 | 0.01 | 59 | 1011.4 |
| 20260510174503 | 75 | 273 | 3.0 | 10.0 | 0.00 | 0.11 | 0.01 | 60 | 1012.2 |
| 20260510174004 | 75 | 297 | 4.0 | 11.0 | 0.00 | 0.11 | 0.01 | 60 | 1012.2 |
| 20260510173503 | 75 | 284 | 4.0 | 11.0 | 0.00 | 0.11 | 0.01 | 60 | 1012.3 |
| 20260510173010 | 75 | 240 | 4.0 | 9.0 | 0.00 | 0.11 | 0.01 | 59 | 1011.5 |
| 20260510172505 | 75 | 277 | 3.0 | 10.0 | 0.00 | 0.11 | 0.01 | 62 | 1012.1 |
| 20260510172004 | 75 | 283 | 3.0 | 10.0 | 0.00 | 0.11 | 0.01 | 59 | 1012.1 |
| 20260510170525 | 75 | 279 | 3.0 | 9.0 | 0.00 | 0.11 | 0.01 | 63 | 1012.1 |
| 20260510170112 | 75 | 254 | 3.0 | 9.0 | 0.00 | 0.11 | 0.01 | 65 | 1011.3 |
| 20260510170005 | 75 | 263 | 1.0 | 7.0 | 0.00 | 0.11 | 0.01 | 66 | 1012.0 |
| 20260510165003 | 73 | 321 | 3.0 | 9.0 | 0.00 | 0.11 | 0.01 | 66 | 1012.0 |
| 20260510164509 | 73 | 344 | 2.0 | 9.0 | 0.00 | 0.11 | 0.01 | 68 | 1011.3 |
| 20260510164004 | 73 | 312 | 4.0 | 9.0 | 0.00 | 0.11 | 0.01 | 66 | 1012.1 |
| 20260510163031 | 73 | 225 | 2.0 | 9.0 | 0.00 | 0.11 | 0.01 | 70 | 1012.2 |
| 20260510163011 | 72 | 217 | 3.0 | 9.0 | 0.00 | 0.11 | 0.01 | 70 | 1011.5 |
| 20260510162504 | 72 | 257 | 2.0 | 5.0 | 0.00 | 0.11 | 0.01 | 74 | 1012.2 |
| 20260510162003 | 71 | 299 | 3.0 | 8.0 | 0.00 | 0.11 | 0.01 | 73 | 1012.1 |
| 20260510161612 | 70 | 341 | 2.0 | 8.0 | 0.00 | 0.11 | 0.01 | 74 | 1011.4 |
| 20260510161507 | 71 | 326 | 3.0 | 8.0 | 0.00 | 0.11 | 0.01 | 75 | 1012.1 |
| 20260510161004 | 70 | 311 | 3.0 | 8.0 | 0.00 | 0.11 | 0.01 | 75 | 1012.2 |
| 20260510154529 | 68 | 286 | 1.0 | 4.0 | 0.00 | 0.11 | 0.01 | 82 | 1011.8 |
| 20260510154504 | 68 | 278 | 2.0 | 6.0 | 0.00 | 0.11 | 0.01 | 82 | 1012.5 |
| 20260510154005 | 68 | 276 | 3.0 | 7.0 | 0.00 | 0.11 | 0.01 | 84 | 1012.5 |
| 20260510153058 | 66 | 239 | 2.0 | 5.0 | 0.00 | 0.11 | 0.01 | 83 | 1011.9 |
| 20260510153004 | 67 | 191 | 1.0 | 5.0 | 0.00 | 0.11 | 0.01 | 84 | 1012.6 |
| 20260510152503 | 66 | 230 | 2.0 | 5.0 | 0.00 | 0.11 | 0.01 | 87 | 1012.5 |
| 20260510151618 | 65 | 346 | 2.0 | 5.0 | 0.00 | 0.11 | 0.01 | 90 | 1011.8 |
| 20260510151527 | 65 | 311 | 3.0 | 7.0 | 0.00 | 0.11 | 0.01 | 91 | 1012.5 |
| 20260510151003 | 64 | 320 | 3.0 | 7.0 | 0.00 | 0.11 | 0.01 | 93 | 1012.6 |
| 20260510150512 | 63 | 235 | 3.0 | 5.0 | 0.00 | 0.11 | 0.01 | 97 | 1012.6 |
| 20260510145504 | 62 | 242 | 1.0 | 5.0 | 0.00 | 0.11 | 0.01 | 100 | 1012.7 |
| 20260510145025 | 62 | 212 | 1.0 | 4.0 | 0.00 | 0.11 | 0.01 | 100 | 1012.6 |
| 20260510144529 | 61 | 302 | 0.0 | 4.0 | 0.00 | 0.11 | 0.01 | 100 | 1012.0 |
| 20260510144004 | 62 | 166 | 1.0 | 4.0 | 0.00 | 0.11 | 0.01 | 100 | 1012.6 |
| 20260510143507 | 61 | 132 | 1.0 | 3.0 | 0.00 | 0.11 | 0.01 | 100 | 1012.6 |
| 20260510143059 | 60 | 139 | 1.0 | 3.0 | 0.00 | 0.11 | 0.01 | 100 | 1011.9 |
| 20260510142003 | 59 | 7 | 1.0 | 3.0 | 0.00 | 0.11 | 0.01 | 100 | 1012.7 |
| 20260510141505 | 59 | 360 | 1.0 | 3.0 | 0.00 | 0.11 | 0.01 | 100 | 1012.6 |
| 20260510141004 | 58 | 332 | 1.0 | 3.0 | 0.00 | 0.11 | 0.01 | 99 | 1012.6 |
| 20260510140032 | 57 | 360 | 0.0 | 4.0 | 0.00 | 0.11 | 0.01 | 100 | 1011.8 |
| 20260510140004 | 58 | 4 | 1.0 | 4.0 | 0.00 | 0.11 | 0.01 | 100 | 1012.5 |
| 20260510135505 | 57 | 4 | 1.0 | 4.0 | 0.00 | 0.11 | 0.01 | 100 | 1012.6 |
| 20260510134519 | 56 | 32 | 0.0 | 2.0 | 0.00 | 0.11 | 0.01 | 99 | 1011.8 |
| 20260510134504 | 56 | 357 | 1.0 | 3.0 | 0.00 | 0.11 | 0.01 | 99 | 1012.5 |
| 20260510134005 | 56 | 358 | 1.0 | 3.0 | 0.00 | 0.11 | 0.01 | 99 | 1012.5 |
| 20260510133506 | 56 | 12 | 1.0 | 3.0 | 0.00 | 0.11 | 0.01 | 99 | 1012.5 |
| 20260510133116 | 55 | 32 | 0.0 | 3.0 | 0.00 | 0.11 | 0.01 | 99 | 1011.8 |
| 20260510132526 | 55 | 316 | 1.0 | 4.0 | 0.00 | 0.11 | 0.01 | 99 | 1012.5 |
| 20260510132003 | 55 | 340 | 2.0 | 4.0 | 0.00 | 0.11 | 0.01 | 99 | 1012.5 |
| 20260510131525 | 55 | 344 | 2.0 | 4.0 | 0.00 | 0.11 | 0.01 | 99 | 1012.7 |
| 20260510131004 | 55 | 337 | 1.0 | 4.0 | 0.00 | 0.11 | 0.01 | 99 | 1012.7 |
| 20260510130042 | 54 | 159 | 1.0 | 4.0 | 0.00 | 0.11 | 0.01 | 99 | 1012.6 |
| 20260510130014 | 54 | 159 | 0.0 | 3.0 | 0.00 | 0.11 | 0.01 | 99 | 1011.9 |
| 20260510124003 | 54 | 123 | 1.0 | 3.0 | 0.00 | 0.11 | 0.01 | 99 | 1012.3 |
| 20260510122505 | 54 | 61 | 1.0 | 3.0 | 0.00 | 0.11 | 0.01 | 99 | 1012.2 |
| 20260510121619 | 53 | 101 | 0.0 | 3.0 | 0.00 | 0.11 | 0.01 | 99 | 1011.3 |
| 20260510120002 | 53 | 55 | 0.0 | 2.0 | 0.00 | 0.11 | 0.01 | 99 | 1011.3 |
| 20260510115504 | 53 | 0 | 0.0 | 2.0 | 0.00 | 0.11 | 0.01 | 99 | 1011.7 |
| 20260510115004 | 53 | 0 | 0.0 | 2.0 | 0.00 | 0.11 | 0.01 | 99 | 1011.8 |
| 20260510114619 | 52 | 16 | 0.0 | 3.0 | 0.00 | 0.11 | 0.01 | 99 | 1011.0 |
| 20260510113503 | 52 | 0 | 0.0 | 3.0 | 0.00 | 0.11 | 0.01 | 99 | 1011.7 |
| 20260510113035 | 52 | 65 | 0.0 | 3.0 | 0.00 | 0.11 | 0.01 | 99 | 1010.9 |
| 20260510111618 | 51 | 332 | 1.0 | 3.0 | 0.00 | 0.11 | 0.01 | 99 | 1011.1 |
| 20260510111505 | 52 | 40 | 1.0 | 2.0 | 0.00 | 0.11 | 0.01 | 99 | 1011.7 |
| 20260510110031 | 51 | 30 | 1.0 | 3.0 | 0.00 | 0.11 | 0.01 | 99 | 1010.9 |
| 20260510105503 | 52 | 18 | 1.0 | 3.0 | 0.00 | 0.11 | 0.01 | 99 | 1011.5 |
| 20260510105006 | 51 | 5 | 1.0 | 2.0 | 0.00 | 0.11 | 0.01 | 99 | 1011.3 |
| 20260510104545 | 51 | 360 | 1.0 | 2.0 | 0.00 | 0.11 | 0.01 | 99 | 1010.6 |
| 20260510104007 | 51 | 360 | 1.0 | 3.0 | 0.00 | 0.11 | 0.01 | 99 | 1011.3 |
| 20260510103507 | 51 | 0 | 0.0 | 3.0 | 0.00 | 0.11 | 0.01 | 99 | 1011.1 |
| 20260510101004 | 51 | 357 | 2.0 | 5.0 | 0.00 | 0.11 | 0.01 | 99 | 1011.1 |
| 20260510100058 | 50 | 46 | 1.0 | 3.0 | 0.00 | 0.11 | 0.01 | 98 | 1010.2 |
| 20260510100025 | 51 | 39 | 1.0 | 2.0 | 0.00 | 0.11 | 0.01 | 98 | 1010.9 |
| 20260510095504 | 51 | 22 | 1.0 | 4.0 | 0.00 | 0.11 | 0.01 | 98 | 1011.0 |
| 20260510094548 | 50 | 11 | 1.0 | 4.0 | 0.00 | 0.11 | 0.01 | 98 | 1010.2 |
| 20260510094505 | 51 | 33 | 2.0 | 4.0 | 0.00 | 0.11 | 0.01 | 98 | 1010.9 |
| 20260510094003 | 51 | 32 | 2.0 | 3.0 | 0.00 | 0.11 | 0.01 | 98 | 1011.0 |
| 20260510093048 | 50 | 22 | 4.0 | 5.0 | 0.00 | 0.11 | 0.01 | 98 | 1010.3 |
| 20260510093004 | 51 | 352 | 4.0 | 9.0 | 0.00 | 0.11 | 0.01 | 98 | 1011.0 |
| 20260510092503 | 51 | 357 | 5.0 | 9.0 | 0.00 | 0.11 | 0.01 | 98 | 1010.9 |
| 20260510091505 | 51 | 359 | 4.0 | 8.0 | 0.00 | 0.11 | 0.01 | 98 | 1011.0 |
| 20260510091005 | 51 | 356 | 3.0 | 7.0 | 0.00 | 0.11 | 0.01 | 98 | 1011.1 |
| 20260510090504 | 51 | 356 | 4.0 | 8.0 | 0.00 | 0.11 | 0.01 | 98 | 1010.9 |
| 20260510090106 | 50 | 16 | 3.0 | 8.0 | 0.00 | 0.11 | 0.01 | 98 | 1010.2 |
| 20260510090004 | 51 | 347 | 5.0 | 12.0 | 0.00 | 0.11 | 0.01 | 98 | 1010.9 |
| 20260510084629 | 50 | 355 | 2.0 | 10.0 | 0.00 | 0.11 | 0.01 | 98 | 1010.0 |
| 20260510084508 | 50 | 345 | 6.0 | 10.0 | 0.00 | 0.11 | 0.01 | 98 | 1011.0 |
| 20260510083504 | 50 | 348 | 7.0 | 11.0 | 0.00 | 0.11 | 0.01 | 98 | 1010.9 |
| 20260510083026 | 49 | 5 | 4.0 | 11.0 | 0.00 | 0.11 | 0.01 | 98 | 1009.9 |
| 20260510081519 | 49 | 5 | 1.0 | 4.0 | 0.00 | 0.11 | 0.01 | 98 | 1009.7 |
| 20260510080525 | 50 | 5 | 2.0 | 3.0 | 0.00 | 0.11 | 0.01 | 98 | 1010.3 |
| 20260510080114 | 50 | 15 | 1.0 | 3.0 | 0.00 | 0.11 | 0.01 | 98 | 1009.4 |
| 20260510075004 | 51 | 1 | 2.0 | 4.0 | 0.00 | 0.11 | 0.01 | 98 | 1010.3 |
| 20260510074506 | 51 | 353 | 2.0 | 4.0 | 0.00 | 0.11 | 0.01 | 98 | 1010.2 |
| 20260510074504 | 51 | 342 | 1.0 | 4.0 | 0.00 | 0.11 | 0.01 | 98 | 1009.6 |
| 20260510074004 | 51 | 350 | 2.0 | 4.0 | 0.00 | 0.11 | 0.01 | 98 | 1010.2 |
| 20260510073504 | 51 | 334 | 1.0 | 3.0 | 0.00 | 0.11 | 0.01 | 98 | 1010.2 |
| 20260510073005 | 51 | 328 | 1.0 | 3.0 | 0.00 | 0.11 | 0.01 | 97 | 1010.2 |
| 20260510072505 | 51 | 328 | 2.0 | 3.0 | 0.00 | 0.11 | 0.01 | 98 | 1010.3 |
| 20260510071556 | 51 | 333 | 1.0 | 4.0 | 0.01 | 0.11 | 0.01 | 98 | 1009.4 |
| 20260510070503 | 51 | 359 | 2.0 | 4.0 | 0.01 | 0.11 | 0.01 | 98 | 1010.1 |
| 20260510070004 | 51 | 352 | 2.0 | 5.0 | 0.01 | 0.11 | 0.01 | 98 | 1010.2 |
| 20260510064616 | 50 | 355 | 3.0 | 5.0 | 0.01 | 0.11 | 0.01 | 97 | 1009.2 |
| 20260510063529 | 51 | 73 | 1.0 | 3.0 | 0.01 | 0.11 | 0.01 | 97 | 1009.6 |
| 20260510063004 | 50 | 73 | 0.0 | 2.0 | 0.01 | 0.11 | 0.01 | 97 | 1009.0 |
| 20260510062527 | 51 | 73 | 1.0 | 2.0 | 0.01 | 0.11 | 0.01 | 97 | 1009.8 |
| 20260510062005 | 51 | 73 | 1.0 | 2.0 | 0.00 | 0.10 | 0.00 | 97 | 1009.8 |
| 20260510061606 | 51 | 73 | 1.0 | 2.0 | 0.00 | 0.10 | 0.00 | 97 | 1009.1 |
| 20260510061506 | 51 | 0 | 0.0 | 2.0 | 0.00 | 0.10 | 0.00 | 97 | 1009.8 |
| 20260510061026 | 51 | 0 | 0.0 | 2.0 | 0.00 | 0.10 | 0.00 | 97 | 1009.9 |
| 20260510060512 | 51 | 0 | 0.0 | 1.0 | 0.00 | 0.10 | 0.00 | 97 | 1010.0 |
| 20260510060101 | 51 | 73 | 0.0 | 1.0 | 0.00 | 0.10 | 0.00 | 97 | 1009.2 |
| 20260510054507 | 51 | 73 | 0.0 | 1.0 | 0.00 | 0.10 | 0.00 | 97 | 1009.3 |
| 20260510054504 | 51 | 0 | 0.0 | 1.0 | 0.00 | 0.10 | 0.00 | 97 | 1010.1 |
| 20260510054025 | 51 | 0 | 0.0 | 1.0 | 0.00 | 0.10 | 0.00 | 97 | 1010.0 |
| 20260510053109 | 51 | 73 | 0.0 | 0.0 | 0.00 | 0.10 | 0.00 | 97 | 1009.4 |
| 20260510051545 | 51 | 73 | 0.0 | 1.0 | 0.00 | 0.10 | 0.00 | 97 | 1009.4 |
| 20260510051540 | 51 | 0 | 0.0 | 1.0 | 0.00 | 0.10 | 0.00 | 97 | 1010.2 |
| 20260510051003 | 51 | 0 | 0.0 | 0.0 | 0.00 | 0.10 | 0.00 | 97 | 1010.2 |
| 20260510050107 | 51 | 73 | 0.0 | 0.0 | 0.00 | 0.10 | 0.00 | 96 | 1009.6 |
| 20260510045528 | 51 | 0 | 0.0 | 0.0 | 0.00 | 0.10 | 0.00 | 96 | 1010.3 |
| 20260510045025 | 51 | 0 | 0.0 | 0.0 | 0.00 | 0.10 | 0.00 | 97 | 1010.3 |
| 20260510044526 | 51 | 73 | 0.0 | 0.0 | 0.00 | 0.10 | 0.00 | 97 | 1009.7 |
| 20260510044507 | 51 | 0 | 0.0 | 0.0 | 0.00 | 0.10 | 0.00 | 97 | 1010.4 |
| 20260510044005 | 51 | 0 | 0.0 | 0.0 | 0.00 | 0.10 | 0.00 | 97 | 1010.4 |
| 20260510043145 | 51 | 73 | 0.0 | 0.0 | 0.00 | 0.10 | 0.00 | 97 | 1009.8 |
| 20260510042506 | 51 | 0 | 0.0 | 0.0 | 0.00 | 0.10 | 0.00 | 97 | 1010.4 |
| 20260510042003 | 51 | 0 | 0.0 | 0.0 | 0.00 | 0.10 | 0.00 | 97 | 1010.4 |
| 20260510041556 | 51 | 73 | 0.0 | 0.0 | 0.00 | 0.10 | 0.00 | 97 | 1009.8 |
| 20260510041505 | 51 | 0 | 0.0 | 0.0 | 0.00 | 0.10 | 0.00 | 97 | 1010.6 |
| 20260510041033 | 51 | 0 | 0.0 | 0.0 | 0.00 | 0.10 | 0.00 | 97 | 1010.5 |
| 20260510040123 | 50 | 73 | 0.0 | 0.0 | 0.00 | 0.10 | 0.00 | 96 | 1009.8 |
| 20260510035025 | 51 | 0 | 0.0 | 0.0 | 0.00 | 0.10 | 0.10 | 96 | 1010.5 |
| 20260510034532 | 51 | 0 | 0.0 | 0.0 | 0.00 | 0.10 | 0.10 | 95 | 1010.3 |
| 20260510034526 | 50 | 73 | 0.0 | 0.0 | 0.00 | 0.10 | 0.10 | 95 | 1009.7 |
| 20260510031003 | 51 | 0 | 0.0 | 2.0 | 0.00 | 0.10 | 0.10 | 95 | 1010.1 |
| 20260510030524 | 51 | 0 | 0.0 | 2.0 | 0.00 | 0.10 | 0.10 | 95 | 1010.1 |
| 20260510030016 | 50 | 73 | 0.0 | 2.0 | 0.00 | 0.10 | 0.10 | 95 | 1009.5 |
| 20260510025508 | 51 | 0 | 0.0 | 2.0 | 0.00 | 0.10 | 0.10 | 95 | 1010.1 |
| 20260510025024 | 51 | 73 | 1.0 | 2.0 | 0.00 | 0.10 | 0.10 | 95 | 1010.0 |
| 20260510024604 | 50 | 73 | 0.0 | 2.0 | 0.00 | 0.10 | 0.10 | 94 | 1009.3 |
| 20260510024004 | 51 | 0 | 0.0 | 1.0 | 0.00 | 0.10 | 0.10 | 95 | 1010.0 |
| 20260510023506 | 52 | 0 | 0.0 | 0.0 | 0.00 | 0.10 | 0.10 | 95 | 1010.0 |
| 20260510023033 | 51 | 73 | 0.0 | 0.0 | 0.00 | 0.10 | 0.10 | 95 | 1009.3 |
| 20260510022528 | 52 | 0 | 0.0 | 0.0 | 0.00 | 0.10 | 0.10 | 95 | 1010.1 |
| 20260510021510 | 51 | 73 | 0.0 | 0.0 | 0.00 | 0.10 | 0.10 | 95 | 1009.2 |
| 20260510020112 | 51 | 73 | 0.0 | 0.0 | 0.00 | 0.10 | 0.10 | 95 | 1009.2 |
| 20260510020004 | 52 | 0 | 0.0 | 0.0 | 0.00 | 0.10 | 0.10 | 94 | 1009.9 |
| 20260510015506 | 52 | 0 | 0.0 | 0.0 | 0.00 | 0.10 | 0.10 | 94 | 1010.0 |
| 20260510014536 | 52 | 73 | 0.0 | 0.0 | 0.00 | 0.10 | 0.10 | 94 | 1009.2 |
| 20260510014514 | 52 | 0 | 0.0 | 1.0 | 0.00 | 0.10 | 0.10 | 95 | 1010.0 |
| 20260510014003 | 52 | 0 | 0.0 | 1.0 | 0.00 | 0.10 | 0.10 | 94 | 1010.0 |
| 20260510013012 | 52 | 73 | 0.0 | 1.0 | 0.00 | 0.10 | 0.10 | 94 | 1009.2 |
| 20260510011504 | 53 | 0 | 0.0 | 0.0 | 0.00 | 0.10 | 0.10 | 93 | 1009.9 |
| 20260510010111 | 53 | 73 | 0.0 | 0.0 | 0.00 | 0.10 | 0.10 | 94 | 1009.0 |
| 20260510010004 | 54 | 0 | 0.0 | 0.0 | 0.00 | 0.10 | 0.10 | 94 | 1009.6 |
| 20260510005541 | 54 | 0 | 0.0 | 0.0 | 0.00 | 0.10 | 0.10 | 94 | 1009.6 |
| 20260510004515 | 54 | 73 | 0.0 | 0.0 | 0.00 | 0.10 | 0.10 | 93 | 1008.8 |
| 20260510004509 | 54 | 0 | 0.0 | 0.0 | 0.00 | 0.10 | 0.10 | 93 | 1009.6 |
| 20260510004003 | 54 | 0 | 0.0 | 1.0 | 0.00 | 0.10 | 0.10 | 93 | 1009.6 |
| 20260510003016 | 54 | 73 | 0.0 | 1.0 | 0.00 | 0.10 | 0.10 | 93 | 1008.7 |
| 20260510002004 | 55 | 0 | 0.0 | 1.0 | 0.00 | 0.10 | 0.10 | 93 | 1009.4 |
| 20260510001600 | 55 | 73 | 0.0 | 0.0 | 0.00 | 0.10 | 0.10 | 92 | 1008.7 |
| 20260510000003 | 56 | 0 | 0.0 | 0.0 | 0.00 | 0.10 | 0.10 | 92 | 1009.4 |
| 20260509235511 | 57 | 0 | 0.0 | 1.0 | 0.00 | 0.10 | 0.10 | 92 | 1009.4 |
| 20260509234535 | 57 | 73 | 0.0 | 1.0 | 0.00 | 0.10 | 0.10 | 92 | 1008.6 |
| 20260509234004 | 57 | 0 | 0.0 | 2.0 | 0.00 | 0.10 | 0.10 | 92 | 1009.4 |
| 20260509233505 | 58 | 0 | 0.0 | 2.0 | 0.00 | 0.10 | 0.10 | 92 | 1009.4 |
| 20260509233006 | 58 | 0 | 0.0 | 1.0 | 0.00 | 0.10 | 0.10 | 92 | 1009.4 |
| 20260509233004 | 57 | 61 | 0.0 | 2.0 | 0.00 | 0.10 | 0.10 | 92 | 1008.6 |
| 20260509231515 | 58 | 70 | 0.0 | 2.0 | 0.00 | 0.10 | 0.10 | 92 | 1008.6 |
| 20260509231504 | 58 | 60 | 1.0 | 2.0 | 0.00 | 0.10 | 0.10 | 92 | 1009.4 |
| 20260509225011 | 58 | 102 | 1.0 | 3.0 | 0.00 | 0.10 | 0.10 | 92 | 1009.3 |
| 20260509224535 | 58 | 60 | 1.0 | 4.0 | 0.00 | 0.10 | 0.10 | 93 | 1008.5 |
| 20260509224004 | 58 | 91 | 1.0 | 4.0 | 0.00 | 0.10 | 0.10 | 93 | 1009.4 |
| 20260509223003 | 57 | 0 | 0.0 | 2.0 | 0.00 | 0.10 | 0.10 | 93 | 1009.2 |
| 20260509221616 | 56 | 159 | 0.0 | 2.0 | 0.00 | 0.10 | 0.10 | 92 | 1008.5 |
| 20260509220504 | 57 | 0 | 0.0 | 4.0 | 0.07 | 0.10 | 0.10 | 92 | 1009.5 |
| 20260509220126 | 57 | 111 | 0.0 | 2.0 | 0.08 | 0.10 | 0.10 | 92 | 1008.8 |
| 20260509220026 | 57 | 105 | 1.0 | 4.0 | 0.08 | 0.10 | 0.10 | 93 | 1009.6 |
| 20260509215504 | 57 | 112 | 1.0 | 4.0 | 0.09 | 0.10 | 0.10 | 92 | 1009.5 |
| 20260509214618 | 57 | 90 | 1.0 | 6.0 | 0.10 | 0.10 | 0.10 | 92 | 1008.9 |
| 20260509214004 | 57 | 0 | 0.0 | 6.0 | 0.10 | 0.10 | 0.10 | 92 | 1009.7 |
| 20260509213148 | 57 | 123 | 0.0 | 3.0 | 0.10 | 0.10 | 0.10 | 92 | 1009.1 |
| 20260509211600 | 57 | 143 | 0.0 | 2.0 | 0.10 | 0.10 | 0.10 | 90 | 1009.0 |
| 20260509211025 | 57 | 86 | 1.0 | 3.0 | 0.08 | 0.08 | 0.08 | 89 | 1009.9 |
| 20260509210507 | 57 | 0 | 0.0 | 3.0 | 0.03 | 0.03 | 0.03 | 88 | 1010.1 |
| 20260509210139 | 57 | 46 | 0.0 | 3.0 | 0.02 | 0.02 | 0.02 | 88 | 1009.0 |
| 20260509204646 | 57 | 347 | 1.0 | 5.0 | 0.00 | 0.00 | 0.00 | 87 | 1008.9 |
| 20260509203113 | 58 | 340 | 2.0 | 9.0 | 0.00 | 0.00 | 0.00 | 87 | 1008.6 |
| 20260509203004 | 58 | 350 | 5.0 | 11.0 | 0.00 | 0.00 | 0.00 | 87 | 1009.4 |
| 20260509202025 | 58 | 345 | 7.0 | 14.0 | 0.00 | 0.00 | 0.00 | 86 | 1009.2 |
| 20260509201609 | 58 | 285 | 5.0 | 14.0 | 0.00 | 0.00 | 0.00 | 86 | 1008.7 |
| 20260509201504 | 58 | 348 | 9.0 | 14.0 | 0.00 | 0.00 | 0.00 | 86 | 1009.5 |
| 20260509200008 | 58 | 355 | 6.0 | 11.0 | 0.00 | 0.00 | 0.00 | 86 | 1008.7 |
| 20260509195504 | 58 | 352 | 7.0 | 11.0 | 0.00 | 0.00 | 0.00 | 86 | 1009.5 |
| 20260509194559 | 58 | 360 | 7.0 | 11.0 | 0.00 | 0.00 | 0.00 | 88 | 1008.9 |
| 20260509194004 | 58 | 320 | 5.0 | 11.0 | 0.00 | 0.00 | 0.00 | 87 | 1009.8 |
| 20260509193004 | 58 | 339 | 6.0 | 12.0 | 0.00 | 0.00 | 0.00 | 86 | 1010.1 |
| 20260509192525 | 59 | 337 | 4.0 | 12.0 | 0.00 | 0.00 | 0.00 | 86 | 1010.2 |
| 20260509192026 | 59 | 331 | 4.0 | 8.0 | 0.00 | 0.00 | 0.00 | 85 | 1010.2 |
| 20260509191546 | 59 | 325 | 4.0 | 9.0 | 0.00 | 0.00 | 0.00 | 84 | 1010.2 |
| 20260509191512 | 58 | 307 | 4.0 | 8.0 | 0.00 | 0.00 | 0.00 | 84 | 1009.4 |
| 20260509191025 | 59 | 328 | 4.0 | 9.0 | 0.00 | 0.00 | 0.00 | 84 | 1010.1 |
| 20260509190027 | 59 | 332 | 3.0 | 8.0 | 0.00 | 0.00 | 0.00 | 83 | 1009.4 |
| 20260509190007 | 60 | 339 | 4.0 | 11.0 | 0.00 | 0.00 | 0.00 | 83 | 1010.2 |
| 20260509184615 | 59 | 355 | 5.0 | 11.0 | 0.00 | 0.00 | 0.00 | 81 | 1009.7 |
| 20260509184504 | 60 | 333 | 6.0 | 11.0 | 0.00 | 0.00 | 0.00 | 81 | 1010.4 |
| 20260509184024 | 60 | 333 | 5.0 | 10.0 | 0.00 | 0.00 | 0.00 | 80 | 1010.3 |
| 20260509183504 | 60 | 337 | 6.0 | 13.0 | 0.00 | 0.00 | 0.00 | 79 | 1010.3 |
| 20260509183014 | 60 | 355 | 6.0 | 13.0 | 0.00 | 0.00 | 0.00 | 78 | 1009.6 |
| 20260509182504 | 60 | 331 | 6.0 | 12.0 | 0.00 | 0.00 | 0.00 | 77 | 1010.4 |
| 20260509182003 | 61 | 327 | 5.0 | 11.0 | 0.00 | 0.00 | 0.00 | 77 | 1010.3 |
| 20260509181608 | 60 | 338 | 2.0 | 8.0 | 0.00 | 0.00 | 0.00 | 78 | 1009.5 |
| 20260509181504 | 61 | 330 | 5.0 | 9.0 | 0.00 | 0.00 | 0.00 | 78 | 1010.3 |
| 20260509181003 | 61 | 345 | 5.0 | 9.0 | 0.00 | 0.00 | 0.00 | 77 | 1010.3 |
| 20260509180004 | 61 | 327 | 4.0 | 8.0 | 0.00 | 0.00 | 0.00 | 79 | 1009.2 |
| 20260509175504 | 61 | 330 | 5.0 | 10.0 | 0.00 | 0.00 | 0.00 | 78 | 1010.1 |